Concordia, KS

10:09 PM CDT on October 23, 2019 (GMT -0500)
Blosser Municipal

Weather History for KCNK - August, 2019

Change the Weather History Date:

Tuesday, August 20, 2019

  Actual Average Record
Temperature  
Mean Temperature 88 °F 77 °F  
Max Temperature 96 °F 88 °F 103 °F (1900)
Min Temperature 80 °F 65 °F 48 °F (1950)
Degree Days  
Heating Degree Days 0 0  
Month to date heating degree days 0 0  
Since 1 June heating degree days 0 13  
Since 1 July heating degree days 0 0  
Cooling Degree Days 23 12  
Month to date cooling degree days 278 260  
Year to date cooling degree days 1183 1050  
Since 1 June cooling degree days 1083 961  
Growing Degree Days 38 (Base 50)    
Moisture  
Dew Point 76 °F    
Average Humidity 73    
Maximum Humidity 94    
Minimum Humidity 52    
Precipitation  
Precipitation 0.00 in 0.10 in 2.38 in (1920)
Month to date precipitation 4.67 2.10  
Year to date precipitation 26.90 20.06  
Snow  
Snow 0.00 in 0.00 in 0.00 in ()
Month to date snowfall 0.0 0.0  
Year to date snowfall 32.3 13.7  
Since 1 July snowfall 0.0 0.0  
Snow Depth 0.00 in    
Sea Level Pressure  
Sea Level Pressure 29.87 in    
Wind  
Wind Speed 10 mph (SSE)    
Max Wind Speed 20 mph    
Max Gust Speed 29 mph    
Visibility 10 miles    
Events      
T = Trace of Precipitation, MM = Missing Value Source: NWS Daily Summary

Daily Weather History Graph

Daily Weather History Graph

Search for Another Location

Airport or City:

Astronomy

Aug. 20, 2019 Rise Set
Actual Time 6:47 AM CDT 8:19 PM CDT
Civil Twilight 6:19 AM CDT 8:48 PM CDT
Nautical Twilight 5:44 AM CDT 9:22 PM CDT
Astronomical Twilight 5:08 AM CDT 9:58 PM CDT
Moon 11:10 PM CDT (8/20) 11:25 AM CDT (8/20)
Length of Visible Light 14h 28m
Length of Day
13h 32m
Waning Gibbous, 77% of the Moon is Illuminated
Aug 20
Waning Gibbous
Aug 23
Last Quarter
Aug 30
New
Sep 5
First Quarter
Sep 13
Full

Hourly Weather History & Observations

Time (CDT) Temp. Heat Index Dew Point Humidity Pressure Visibility Wind Dir Wind Speed Gust Speed Precip Events Conditions
12:55 AM 82.9 °F 91.8 °F 77.0 °F 82% 29.86 in 10.0 mi South 15.0 mph - N/A   Clear
1:55 AM 82.9 °F 90.8 °F 75.9 °F 79% 29.86 in 10.0 mi South 17.3 mph - N/A   Clear
2:55 AM 82.0 °F 88.6 °F 75.0 °F 79% 29.87 in 10.0 mi South 17.3 mph 25.3 mph N/A   Clear
3:55 AM 81.0 °F 86.2 °F 73.9 °F 79% 29.86 in 10.0 mi South 15.0 mph - N/A   Clear
4:55 AM 81.0 °F 85.8 °F 73.0 °F 77% 29.84 in 10.0 mi SSW 17.3 mph - N/A   Clear
5:55 AM 81.0 °F 85.2 °F 72.0 °F 74% 29.83 in 10.0 mi SSW 18.4 mph - N/A   Clear
6:55 AM 81.0 °F 84.9 °F 71.1 °F 72% 29.85 in 10.0 mi SSW 17.3 mph 27.6 mph N/A   Clear
7:55 AM 81.0 °F 84.4 °F 70.0 °F 69% 29.87 in 10.0 mi SSW 15.0 mph - N/A   Clear
8:55 AM 82.0 °F 86.3 °F 71.1 °F 69% 29.89 in 10.0 mi SSW 10.4 mph - N/A   Clear
9:55 AM 82.9 °F 88.0 °F 72.0 °F 69% 29.90 in 10.0 mi SW 8.1 mph - N/A   Clear
10:55 AM 86.0 °F 93.0 °F 73.0 °F 65% 29.89 in 10.0 mi SW 11.5 mph - N/A   Clear
11:55 AM 88.0 °F 96.5 °F 73.9 °F 63% 29.89 in 10.0 mi SW 10.4 mph - N/A   Clear
12:55 PM 93.0 °F 103.2 °F 73.9 °F 54% 29.89 in 10.0 mi West 8.1 mph - N/A   Clear
1:55 PM 93.9 °F 105.4 °F 75.0 °F 54% 29.89 in 10.0 mi SE 5.8 mph - N/A   Clear
2:55 PM 93.0 °F 104.6 °F 75.0 °F 56% 29.89 in 10.0 mi NE 5.8 mph - N/A   Clear
3:55 PM 93.9 °F 108.4 °F 77.0 °F 58% 29.88 in 10.0 mi ENE 9.2 mph - N/A   Clear
4:55 PM 93.0 °F 105.3 °F 75.9 °F 57% 29.87 in 10.0 mi East 10.4 mph - N/A   Clear
5:55 PM 93.0 °F 108.9 °F 78.1 °F 62% 29.86 in 10.0 mi ESE 8.1 mph - N/A   Clear
6:55 PM 91.0 °F 110.6 °F 81.0 °F 72% 29.84 in 10.0 mi East 3.5 mph - N/A   Clear
7:55 PM 88.0 °F 107.5 °F 82.0 °F 82% 29.85 in 10.0 mi NE 5.8 mph - N/A   Clear
8:55 PM 86.0 °F 102.5 °F 81.0 °F 85% 29.89 in 10.0 mi ESE 5.8 mph - N/A   Clear
9:55 PM 84.9 °F 100.3 °F 81.0 °F 88% 29.91 in 10.0 mi East 3.5 mph - N/A   Partly Cloudy
10:55 PM 84.0 °F 98.1 °F 81.0 °F 90% 29.93 in 10.0 mi Calm Calm - N/A   Clear
11:55 PM 82.0 °F 92.8 °F 80.1 °F 94% 29.91 in 10.0 mi East 5.8 mph - N/A   Clear